EW8845 Weather Reports


time (UTC)temp
C
wind
direction
speed
KPH
gust
KPH
rain 1hr
cm
rain 24hr
cm
rain mn
cm
humidity
%
barometer
mb
20190418161628 21 144 6.4 16.1 0.00 0.00 0.00 32 1026.3
20190418160056 21 33 11.3 30.6 0.00 0.00 0.00 30 1026.3
20190418154544 21 82 11.3 29.0 0.00 0.00 0.00 30 1026.2
20190418153112 21 43 6.4 29.0 0.00 0.00 0.00 30 1026.3
20190418151526 21 65 9.7 24.1 0.00 0.00 0.00 29 1026.3
20190418150241 21 61 12.9 25.7 0.00 0.00 0.00 29 1026.3
20190418144606 21 52 17.7 32.2 0.00 0.00 0.00 28 1026.3
20190418143006 21 71 14.5 27.4 0.00 0.00 0.00 29 1026.5
20190418141649 21 117 17.7 27.4 0.00 0.00 0.00 29 1026.5
20190418140040 21 92 12.9 22.5 0.00 0.00 0.00 30 1026.6
20190418134708 21 355 16.1 30.6 0.00 0.00 0.00 30 1026.7
20190418133123 21 59 16.1 27.4 0.00 0.00 0.00 31 1026.7
20190418131528 21 85 14.5 32.2 0.00 0.00 0.00 31 1026.8
20190418130127 21 138 11.3 27.4 0.00 0.00 0.00 32 1026.7
20190418124524 21 98 14.5 29.0 0.00 0.00 0.00 32 1027.0
20190418123221 21 101 11.3 24.1 0.00 0.00 0.00 34 1027.0
20190418121605 21 112 8.0 29.0 0.00 0.00 0.00 34 1027.1
20190418120006 21 96 11.3 30.6 0.00 0.00 0.00 36 1027.2
20190418114600 20 115 11.3 24.1 0.00 0.00 0.00 35 1027.4
20190418113021 20 103 11.3 33.8 0.00 0.00 0.00 35 1027.4
20190418111617 21 88 14.5 24.1 0.00 0.00 0.00 36 1027.7
20190418110038 20 65 9.7 17.7 0.00 0.00 0.00 38 1027.7
20190418104651 20 94 16.1 24.1 0.00 0.00 0.00 39 1027.8
20190418103057 19 68 11.3 19.3 0.00 0.00 0.00 40 1027.9
20190418101513 19 96 11.3 22.5 0.00 0.00 0.00 40 1027.9
20190418100107 18 13 11.3 24.1 0.00 0.00 0.00 42 1027.9
20190418094521 18 155 14.5 22.5 0.00 0.00 0.00 42 1028.1
20190418093141 17 19 9.7 25.7 0.00 0.00 0.00 43 1028.1
20190418091648 17 109 9.7 20.9 0.00 0.00 0.00 44 1028.2
20190418090129 16 11 8.0 17.7 0.00 0.00 0.00 46 1028.2
20190418084605 16 68 12.9 22.5 0.00 0.00 0.00 47 1028.3
20190418083251 15 78 12.9 22.5 0.00 0.00 0.00 48 1028.3
20190418081645 15 78 11.3 19.3 0.00 0.00 0.00 50 1028.2
20190418080018 14 72 9.7 19.3 0.00 0.00 0.00 53 1028.2
20190418074625 13 105 9.7 20.9 0.00 0.00 0.00 54 1028.1
20190418073022 12 80 8.0 16.1 0.00 0.00 0.00 56 1028.1
20190418071643 12 82 4.8 14.5 0.00 0.00 0.00 59 1028.1
20190418070023 11 169 8.0 16.1 0.00 0.00 0.00 60 1028.1
20190418064624 11 78 8.0 17.7 0.00 0.00 0.00 60 1028.0
20190418063120 10 90 9.7 17.7 0.00 0.00 0.00 62 1027.9
20190418060051 8 87 3.2 6.4 0.00 0.00 0.00 66 1027.7
20190418054649 8 84 1.6 8.0 0.00 0.00 0.00 68 1027.6
20190418053046 7 70 3.2 9.7 0.00 0.00 0.00 71 1027.5
20190418051705 7 54 4.8 8.0 0.00 0.00 0.00 73 1027.4
20190418050117 7 70 1.6 8.0 0.00 0.00 0.00 74 1027.3
20190418044627 6 50 3.2 9.7 0.00 0.00 0.00 77 1027.2
20190418043114 6 59 3.2 8.0 0.00 0.00 0.00 78 1027.0
20190418040057 5 124 0.0 1.6 0.00 0.00 0.00 81 1026.7
20190418034537 5 124 0.0 1.6 0.00 0.00 0.00 81 1026.7
20190418033159 6 124 0.0 1.6 0.00 0.00 0.00 80 1026.5
20190418031547 6 124 1.6 4.8 0.00 0.00 0.00 77 1026.6
20190418030200 7 101 0.0 6.4 0.00 0.00 0.00 75 1026.7
20190418024635 7 55 1.6 6.4 0.00 0.00 0.00 75 1026.6
20190418023010 7 57 1.6 4.8 0.00 0.00 0.00 74 1026.5
20190418021608 7 46 0.0 4.8 0.00 0.00 0.00 72 1026.5
20190418020044 8 76 3.2 6.4 0.00 0.00 0.00 68 1026.3
20190418014613 9 84 1.6 9.7 0.00 0.00 0.00 67 1026.2
20190418013041 9 92 3.2 11.3 0.00 0.00 0.00 67 1026.2
20190418011503 9 98 3.2 9.7 0.00 0.00 0.00 67 1026.2
20190418010113 9 85 3.2 9.7 0.00 0.00 0.00 67 1026.2
20190418004520 9 59 3.2 9.7 0.00 0.00 0.00 67 1026.1
20190418003128 9 51 3.2 9.7 0.00 0.00 0.00 66 1026.1
20190418001537 9 82 1.6 8.0 0.00 0.00 0.00 65 1026.1
20190418000135 9 67 3.2 8.0 0.00 0.00 0.00 66 1026.1
20190417234603 9 46 1.6 9.7 0.00 0.00 0.00 64 1026.1
20190417233006 10 40 1.6 8.0 0.00 0.00 0.00 62 1026.0
20190417231625 10 38 3.2 9.7 0.00 0.00 0.00 62 1026.0
20190417230043 10 63 1.6 6.4 0.00 0.00 0.00 61 1026.0
20190417224753 10 103 3.2 11.3 0.00 0.00 0.00 62 1025.9
20190417223048 10 81 1.6 6.4 0.00 0.00 0.00 60 1025.7
20190417221752 11 82 1.6 4.8 0.00 0.00 0.00 56 1025.6
20190417220122 11 60 3.2 9.7 0.00 0.00 0.00 54 1025.5
20190417214518 11 67 1.6 11.3 0.00 0.00 0.00 52 1025.4
20190417213157 11 74 4.8 9.7 0.00 0.00 0.00 51 1025.3
20190417211616 11 74 3.2 9.7 0.00 0.00 0.00 50 1025.2
20190417210132 11 71 3.2 8.0 0.00 0.00 0.00 48 1025.2
20190417204545 12 56 3.2 9.7 0.00 0.00 0.00 47 1025.1
20190417203042 12 65 3.2 12.9 0.00 0.00 0.00 46 1025.0
20190417201617 12 61 3.2 9.7 0.00 0.00 0.00 45 1025.0
20190417200023 13 71 3.2 9.7 0.00 0.00 0.00 43 1024.9
20190417194650 13 50 3.2 8.0 0.00 0.00 0.00 42 1024.7
20190417193118 13 32 4.8 9.7 0.00 0.00 0.00 40 1024.7
20190417191511 14 49 3.2 14.5 0.00 0.00 0.00 39 1024.5
20190417190126 14 69 3.2 16.1 0.00 0.00 0.00 38 1024.3
20190417184545 15 100 6.4 14.5 0.00 0.00 0.00 37 1024.1
20190417183146 15 65 4.8 12.9 0.00 0.00 0.00 37 1023.9
20190417181545 15 34 4.8 14.5 0.00 0.00 0.00 36 1023.7
20190417180150 16 30 4.8 14.5 0.00 0.00 0.00 36 1023.5
20190417174623 16 63 6.4 14.5 0.00 0.00 0.00 36 1023.4
20190417173010 17 82 4.8 14.5 0.00 0.00 0.00 34 1023.3
20190417171702 17 65 8.0 19.3 0.00 0.00 0.00 32 1023.2
20190417170012 17 86 4.8 17.7 0.00 0.00 0.00 32 1023.1
20190417164614 18 66 8.0 19.3 0.00 0.00 0.00 33 1023.1
20190417163037 18 56 9.7 24.1 0.00 0.00 0.00 32 1023.1